Regional Weather Roundup
Issued by NWS Cleveland, OH

Home | Current Version | Previous Version | Text Only | Print | Product List | Glossary On
Versions: 1 2 3 4 5 6 7 8 9 10 11 12 13 14 15 16 17 18 19 20 21 22 23 24 25 26 27 28 29 30 31 32 33 34 35 36 37 38 39 40 41 42 43 44 45 46 47 48 49 50
000
ASUS41 KCLE 051610
RWRCLE
OHIO REGIONAL WEATHER ROUNDUP
NATIONAL WEATHER SERVICE CLEVELAND, OH
1200 PM EDT SUN JUL 05 2015

NOTE: "FAIR" INDICATES FEW OR NO CLOUDS BELOW 12,000 FEET WITH NO
SIGNIFICANT WEATHER AND/OR OBSTRUCTIONS TO VISIBILITY.

OHZ001>008-015>018-024>027-034-035-043-044-051700-
   NORTHWEST OHIO

CITY           SKY/WX    TMP DP  RH WIND       PRES   REMARKS
DEFIANCE       PTSUNNY   77  60  55 CALM      30.13R
FINDLAY        MOSUNNY   78  59  51 CALM      30.12S
TOLEDO EXPRESS MOSUNNY   78  55  44 CALM      30.12F
TOLEDO EXEC    MOSUNNY   77  55  46 VRB5      30.14S
LIMA           MOSUNNY   76  60  57 CALM      30.13S
$$

OHZ009>014-019>023-028>033-038-089-051700-
   NORTHEAST OHIO

CITY           SKY/WX    TMP DP  RH WIND       PRES   REMARKS
CLE-HOPKINS    MOSUNNY   76  49  38 S7        30.16S
CLE-LAKEFRONT  PTSUNNY   76  57  51 N9        30.13S
CUY CO. ARPT   MOSUNNY   77  55  47 SE13      30.16S
LORAIN-ELYRIA    N/A     75  51  43 VRB3      30.15R
ASHTABULA      MOSUNNY   75  56  51 SE5       30.17S
AKRON-CANTON   PTSUNNY   75  54  47 CALM      30.16R
WOOSTER        MOSUNNY   75  59  57 VRB6      30.16R
MANSFIELD      PTSUNNY   74  56  53 CALM      30.16R
YOUNGSTOWN     PTSUNNY   74  55  51 SE3       30.17S
$$

OHZ042-051>053-060>062-070>072-077>081-051700-
  SOUTHWEST OHIO

CITY           SKY/WX    TMP DP  RH WIND       PRES   REMARKS
CINC-COVINGTON CLOUDY    74  60  61 E7        30.12R
CINC-LUNKEN    CLOUDY    74  62  66 NE5       30.11S
HAMILTON       CLOUDY    79  62  56 E7        30.12S
DAYTON         CLOUDY    76  61  59 E5        30.14R
WRIGHT-PAT AFB CLOUDY    77  60  56 NE7       30.12S
DAYTON GENERAL CLOUDY    76  60  57 N9        30.12R
WILMINGTON     CLOUDY    73  59  61 E5        30.12S
$$

OHZ036-037-039>041-045>050-054>059-063>069-073>076-082>088-051700-
  CENTRAL AND SOUTHEAST OHIO

CITY           SKY/WX    TMP DP  RH WIND       PRES   REMARKS
COLUMBUS       CLOUDY    75  59  57 SE3       30.12R
OSU AIRPORT    PTSUNNY   76  58  53 SE5       30.13R
BOLTON FIELD   SUNNY     75  61  60 E3        30.13S
RICKENBACK AFB PTSUNNY   74  62  67 CALM      30.11S
NEWARK         MOSUNNY   75  61  61 CALM      30.13R
MARION         PTSUNNY   74  57  55 CALM      30.15R
LANCASTER      PTSUNNY   75  62  64 VRB3      30.12S
ZANESVILLE     NOT AVBL
NEW PHILLY     MOSUNNY   74  60  61 E5        30.14S
$$


USA.gov is the U.S. government's official web portal to all federal, state and local government web resources and services.